Back to catalog

SJ-21 AKM

AliveGEO
NORAD 49382·ROCKET BODY·🇨🇳 China

Launched Oct 24, 2021 from Xichang Satellite Launch Center

Loading…

TLE

FreshSource: Space-Track

Epoch: Sep 14, 2026, 03:28 UTC

1 49382U 21094C   26257.14481705 -.00000237  00000-0  00000+0 0  9996
2 49382  11.4491  38.9738 0003567 174.9124 177.7031  0.99219964 18368

Track SJ-21 AKM in real time with AllMySat

Download on the App Store